LOG54MR EGCC-EGNT

Flight info

Callsign LOG54MR
Flight time 0h 28m
Altitude 11000
Route POL
Aircraft SF34/M-SDFGR/S

Departure

Time 2026-05-07 14:17
Airport Manchester Airport (EGCC)

Arrival

Time 2026-05-07 14:46
Airport Newcastle International Airport (EGNT)
Time Latitude Longitude Altitude Speed Heading
2026-05-07 14:00 53.35896 -2.27038 251 ft 0 kts 315°
2026-05-07 14:10 53.35894 -2.27034 251 ft 3 kts 316°
2026-05-07 14:10 53.35875 -2.27004 251 ft 4 kts 316°
2026-05-07 14:10 53.35860 -2.26978 251 ft 4 kts 295°
2026-05-07 14:11 53.35858 -2.26939 251 ft 4 kts 249°
2026-05-07 14:11 53.35870 -2.26902 251 ft 2 kts 230°
2026-05-07 14:11 53.35858 -2.26928 251 ft 4 kts 234°
2026-05-07 14:11 53.35849 -2.26948 251 ft 0 kts 233°
2026-05-07 14:13 53.35821 -2.27026 251 ft 15 kts 241°
2026-05-07 14:13 53.35735 -2.27217 251 ft 24 kts 231°
2026-05-07 14:14 53.35617 -2.27462 241 ft 29 kts 232°
2026-05-07 14:14 53.35589 -2.27502 240 ft 4 kts 137°
2026-05-07 14:14 53.35565 -2.27446 241 ft 0 kts 142°
2026-05-07 14:14 53.35564 -2.27445 241 ft 1 kts 142°
2026-05-07 14:15 53.35502 -2.27364 244 ft 26 kts 141°
2026-05-07 14:15 53.35333 -2.27195 239 ft 30 kts 179°
2026-05-07 14:15 53.35169 -2.27244 227 ft 22 kts 191°
2026-05-07 14:15 53.35025 -2.27299 221 ft 16 kts 207°
2026-05-07 14:16 53.35003 -2.27333 221 ft 0 kts 230°
2026-05-07 14:16 53.34903 -2.27537 218 ft 62 kts 231°
2026-05-07 14:17 53.34487 -2.28408 306 ft 123 kts 229°
2026-05-07 14:17 53.33892 -2.29658 910 ft 148 kts 229°
2026-05-07 14:17 53.33259 -2.30979 2114 ft 134 kts 226°
2026-05-07 14:17 53.32706 -2.32073 3379 ft 112 kts 225°
2026-05-07 14:18 53.32203 -2.33094 4153 ft 125 kts 226°
2026-05-07 14:18 53.31740 -2.34527 4691 ft 158 kts 250°
2026-05-07 14:18 53.31643 -2.36535 5164 ft 191 kts 275°
2026-05-07 14:18 53.32197 -2.38668 5754 ft 209 kts 306°
2026-05-07 14:19 53.33350 -2.40122 6658 ft 211 kts 335°
2026-05-07 14:19 53.34782 -2.40746 7450 ft 213 kts 339°
2026-05-07 14:19 53.36177 -2.41588 8264 ft 214 kts 341°
2026-05-07 14:19 53.37641 -2.41503 9127 ft 218 kts 20°
2026-05-07 14:20 53.38950 -2.40212 9951 ft 221 kts 32°
2026-05-07 14:20 53.40303 -2.39006 10801 ft 219 kts 25°
2026-05-07 14:20 53.41680 -2.37927 11673 ft 218 kts 27°
2026-05-07 14:20 53.43022 -2.36765 12589 ft 216 kts 28°
2026-05-07 14:21 53.44370 -2.35647 13499 ft 215 kts 27°
2026-05-07 14:21 53.45708 -2.34530 14379 ft 214 kts 27°
2026-05-07 14:21 53.47085 -2.33370 14940 ft 232 kts 27°
2026-05-07 14:21 53.48643 -2.32066 14976 ft 267 kts 27°
2026-05-07 14:22 53.50382 -2.30607 14983 ft 290 kts 27°
2026-05-07 14:22 53.52204 -2.29075 14982 ft 302 kts 27°
2026-05-07 14:22 53.54107 -2.27475 14980 ft 308 kts 27°
2026-05-07 14:22 53.56034 -2.25855 14981 ft 311 kts 27°
2026-05-07 14:23 53.57976 -2.24217 14983 ft 312 kts 27°
2026-05-07 14:23 53.59922 -2.22577 14981 ft 313 kts 27°
2026-05-07 14:23 53.61872 -2.20930 14979 ft 314 kts 27°
2026-05-07 14:23 53.63822 -2.19281 14978 ft 314 kts 27°
2026-05-07 14:24 53.65774 -2.17630 14983 ft 314 kts 27°
2026-05-07 14:24 53.67726 -2.15976 14984 ft 314 kts 27°
2026-05-07 14:24 53.69653 -2.14342 14980 ft 314 kts 27°
2026-05-07 14:24 53.71577 -2.12709 14984 ft 314 kts 27°
2026-05-07 14:25 53.73530 -2.11051 14983 ft 314 kts 27°
2026-05-07 14:25 53.75480 -2.09390 14981 ft 315 kts 27°
2026-05-07 14:25 53.77435 -2.07728 14972 ft 314 kts 27°
2026-05-07 14:25 53.79382 -2.06068 14976 ft 313 kts 27°
2026-05-07 14:26 53.81327 -2.04408 14978 ft 313 kts 27°
2026-05-07 14:26 53.83354 -2.03167 14969 ft 311 kts 11°
2026-05-07 14:26 53.85490 -2.02646 14970 ft 310 kts
2026-05-07 14:26 53.87614 -2.01950 14971 ft 311 kts 13°
2026-05-07 14:27 53.89671 -2.00990 14970 ft 311 kts 15°
2026-05-07 14:27 53.91763 -2.00043 14972 ft 311 kts 12°
2026-05-07 14:27 53.93876 -1.99255 14974 ft 311 kts 12°
2026-05-07 14:27 53.95982 -1.98375 14971 ft 312 kts 14°
2026-05-07 14:28 53.98079 -1.97471 14982 ft 312 kts 12°
2026-05-07 14:28 54.00194 -1.96641 14981 ft 312 kts 12°
2026-05-07 14:28 54.02304 -1.95754 14980 ft 312 kts 13°
2026-05-07 14:28 54.04416 -1.94865 14978 ft 312 kts 12°
2026-05-07 14:29 54.06498 -1.94026 14997 ft 312 kts 13°
2026-05-07 14:29 54.08610 -1.93138 14999 ft 312 kts 13°
2026-05-07 14:29 54.10718 -1.92261 14999 ft 313 kts 13°
2026-05-07 14:29 54.12835 -1.91391 14999 ft 313 kts 13°
2026-05-07 14:30 54.14949 -1.90502 14996 ft 313 kts 13°
2026-05-07 14:30 54.17064 -1.89626 14997 ft 313 kts 13°
2026-05-07 14:30 54.19179 -1.88745 14996 ft 313 kts 13°
2026-05-07 14:30 54.21295 -1.87859 14996 ft 313 kts 13°
2026-05-07 14:31 54.23410 -1.86980 15016 ft 313 kts 12°
2026-05-07 14:31 54.25527 -1.86091 15016 ft 313 kts 12°
2026-05-07 14:31 54.27619 -1.85217 15018 ft 314 kts 12°
2026-05-07 14:31 54.29735 -1.84331 15017 ft 314 kts 12°
2026-05-07 14:32 54.31856 -1.83439 15016 ft 314 kts 12°
2026-05-07 14:32 54.33980 -1.82549 15016 ft 314 kts 12°
2026-05-07 14:32 54.36104 -1.81656 15017 ft 314 kts 12°
2026-05-07 14:32 54.38225 -1.80762 15016 ft 314 kts 12°
2026-05-07 14:33 54.40347 -1.79870 15014 ft 314 kts 13°
2026-05-07 14:33 54.42466 -1.78975 14911 ft 317 kts 12°
2026-05-07 14:33 54.44638 -1.78059 14541 ft 323 kts 12°
2026-05-07 14:33 54.46822 -1.77135 14185 ft 324 kts 12°
2026-05-07 14:34 54.49016 -1.76207 13831 ft 324 kts 12°
2026-05-07 14:34 54.51176 -1.75293 13432 ft 323 kts 12°
2026-05-07 14:34 54.53352 -1.74369 13037 ft 321 kts 12°
2026-05-07 14:34 54.55531 -1.73775 12630 ft 315 kts 356°
2026-05-07 14:35 54.57620 -1.74632 12226 ft 307 kts 331°
2026-05-07 14:35 54.59269 -1.76836 11831 ft 296 kts 309°
2026-05-07 14:35 54.60881 -1.79025 11443 ft 301 kts 331°
2026-05-07 14:35 54.62930 -1.79840 11053 ft 307 kts 357°
2026-05-07 14:36 54.65017 -1.79086 10665 ft 310 kts 22°
2026-05-07 14:36 54.66724 -1.76941 10295 ft 309 kts 48°
2026-05-07 14:36 54.67941 -1.73917 9927 ft 305 kts 60°
2026-05-07 14:36 54.68971 -1.70719 9528 ft 304 kts 63°
2026-05-07 14:37 54.70000 -1.67558 9127 ft 301 kts 55°
2026-05-07 14:37 54.73522 -1.64179 8305 ft 294 kts
2026-05-07 14:37 54.75503 -1.64699 7909 ft 285 kts 336°
2026-05-07 14:38 54.77395 -1.65662 7520 ft 287 kts 352°
2026-05-07 14:38 54.79377 -1.65181 7127 ft 292 kts 19°
2026-05-07 14:38 54.81148 -1.63593 6757 ft 290 kts 25°
2026-05-07 14:38 54.83059 -1.62560 6371 ft 286 kts
2026-05-07 14:39 54.85016 -1.62135 5981 ft 284 kts
2026-05-07 14:39 54.86955 -1.61504 5589 ft 284 kts 11°
2026-05-07 14:39 54.88869 -1.60665 5200 ft 283 kts 13°
2026-05-07 14:39 54.90783 -1.59887 4822 ft 281 kts 10°
2026-05-07 14:40 54.92697 -1.59224 4433 ft 274 kts
2026-05-07 14:40 54.94453 -1.58625 4039 ft 249 kts
2026-05-07 14:40 54.96005 -1.57973 3641 ft 212 kts 14°
2026-05-07 14:40 54.97330 -1.57358 3237 ft 183 kts 11°
2026-05-07 14:41 54.98531 -1.56942 2823 ft 172 kts 10°
2026-05-07 14:41 54.99665 -1.56503 2552 ft 156 kts 12°
2026-05-07 14:41 55.00680 -1.56110 2494 ft 144 kts
2026-05-07 14:41 55.01642 -1.55744 2488 ft 140 kts 12°
2026-05-07 14:42 55.02600 -1.55363 2488 ft 141 kts 11°
2026-05-07 14:42 55.03554 -1.55001 2490 ft 138 kts 11°
2026-05-07 14:42 55.04467 -1.54641 2489 ft 136 kts
2026-05-07 14:42 55.05427 -1.54454 2279 ft 143 kts 350°
2026-05-07 14:43 55.06359 -1.55016 2066 ft 140 kts 318°
2026-05-07 14:43 55.06854 -1.56330 1821 ft 130 kts 274°
2026-05-07 14:43 55.06801 -1.57833 1508 ft 120 kts 242°
2026-05-07 14:43 55.06487 -1.59135 1349 ft 116 kts 240°
2026-05-07 14:44 55.06126 -1.60409 1180 ft 118 kts 236°
2026-05-07 14:44 55.05742 -1.61702 955 ft 121 kts 236°
2026-05-07 14:44 55.05409 -1.63003 831 ft 116 kts 233°
2026-05-07 14:44 55.05048 -1.64229 674 ft 115 kts 236°
2026-05-07 14:45 55.04711 -1.65532 519 ft 120 kts 240°
2026-05-07 14:45 55.04367 -1.66813 343 ft 115 kts 238°
2026-05-07 14:45 55.04038 -1.68059 246 ft 108 kts 242°
2026-05-07 14:45 55.03783 -1.69012 248 ft 56 kts 245°
2026-05-07 14:46 55.03691 -1.69363 252 ft 27 kts 244°
2026-05-07 14:46 55.03594 -1.69718 255 ft 32 kts 250°
2026-05-07 14:46 55.03588 -1.70045 258 ft 25 kts 275°
2026-05-07 14:46 55.03601 -1.70336 263 ft 18 kts 274°
2026-05-07 14:47 55.03680 -1.70437 263 ft 21 kts
2026-05-07 14:47 55.03787 -1.70441 263 ft 16 kts 318°
2026-05-07 14:47 55.03802 -1.70581 263 ft 6 kts 277°
2026-05-07 14:47 55.03843 -1.70597 263 ft 6 kts
2026-05-07 14:48 55.03868 -1.70594 263 ft 0 kts